Location: Unnamed
(54.5186°N, 36.2255°E)
Time: 16:31:48
(UTC+03:00)

ISS - Pass Details

Date: 24 February 2026
Orbit: 416 x 427 km, 51.6° (Epoch: 5 March)

Event Time Altitude Azimuth Distance (km) Brightness Sun altitude
Exits shadow 07:04:04 - 269° (W) 1,746 -1.3 -5.4°
Reaches altitude 10° 07:04:43 10° 266° (W) 1,497 -1.6 -5.3°
Maximum altitude 07:07:48 35° 199° (SSW) 696 -2.7 -4.9°
Drops below altitude 10° 07:10:53 10° 132° (SE) 1,491 0.1 -4.5°
Sets 07:13:04 0° 123° (ESE) 2,351 1.6 -4.1°
